Weather in Tyush

Russia / Perm Krai     56°38′25″N   56°59′48″E
temp.,
°C
wind,
m/s
gust,
m/s
humid.,
%
clouds,
%
prec.,
mm/h
press.,
hPa
HPBL,
m
28 february, sun
sun2823:00−16ese6129183 0.3 1007343
02:00−15ese5109199 0.1 1006333
05:00−14e5119294 0.3 1005382
08:00−15e4109186 0.1 1005354
11:00−13ene599193 0.3 1005490
14:00−10e5889100 0.2 1006587
17:00−10ene5790100 0.4 1007593
20:00−13ene499299 0.1 1009372
1 march, mon
mon123:00−14ene489397 0.2 1010366
02:00−16ene489486 0.1 1012314
05:00−17ene379484 0.2 1014316
08:00−17ene3795100 0.2 1015286
11:00−16ene359296 0.3 1017338
14:00−13ne238798 0.0 1016419
17:00−12nne228899 0.1 1017337
20:00−17n1199100 0.0 101720
2 march, tue
tue223:00−18ssw229982 0.1 101720
02:00−19ssw4710077 0.0 1015133
05:00−20ssw51010088 0.1 1014253
08:00−20ssw61397100 0.0 1011340
11:00−17ssw71394100 0.1 1009400
14:00−13ssw81393100 0.4 1005514
17:00−13ssw71392100 0.8 1003593
20:00−13ssw71392100 0.4 1002578
3 march, wed
wed323:00−12ssw61393100 0.8 1001514
02:00−11ssw61194100 0.4 999430
05:00−9ssw51095100 1.3 998382
08:00−8ssw3896100 0.9 997294
11:00−4wsw4695100 1.1 998410
14:00−4sw4795100 0.1 998439
17:00−3wsw5893100 0.4 999706
20:00−6wnw4994100 0.6 999443
4 march, thu
thu423:00−10wsw379695 0.7 1002167
02:00−11w369798 0.2 1002122
05:00−15wsw239893 0.3 100324
08:00−15ssw359794 0.1 100499
11:00−10sw489497 0.4 1003354
14:00−7sw5891100 0.1 1002663
17:00−7ssw61092100 0.3 1001717
20:00−8ssw71394100 0.3 999644